AB4KN Weather Reports


Display with metric or nautical units.
time (UTC)temp
F
wind
direction
speed
MPH
gust
MPH
rain 1hr
in
rain 24hr
in
rain mn
in
humidity
%
barometer
mb
20260509072415 59 291 0.0 0.0 0.00 0.00 0.00 88 1017.0
20260509071911 59 274 0.0 2.0 0.00 0.00 0.00 88 1016.8
20260509071409 59 288 0.0 0.0 0.00 0.00 0.00 88 1016.6
20260509070906 59 267 0.0 0.0 0.00 0.00 0.00 88 1016.8
20260509070403 59 250 2.0 2.0 0.00 0.00 0.00 88 1017.2
20260509065858 59 284 0.0 0.0 0.00 0.00 0.00 88 1017.0
20260509065355 59 275 0.0 2.0 0.00 0.00 0.00 88 1017.1
20260509064851 59 257 0.0 2.0 0.00 0.00 0.00 88 1017.3
20260509064349 59 293 0.0 0.0 0.00 0.00 0.00 87 1017.5
20260509063846 59 267 1.0 2.0 0.00 0.00 0.00 87 1017.6
20260509063342 59 284 0.0 0.0 0.00 0.00 0.00 87 1017.6
20260509062839 59 282 0.0 0.0 0.00 0.00 0.00 87 1017.6
20260509062336 60 272 0.0 0.0 0.00 0.00 0.00 87 1017.9
20260509061833 60 284 0.0 0.0 0.00 0.00 0.00 87 1018.1
20260509061332 60 295 0.0 0.0 0.00 0.00 0.00 87 1018.0
20260509060828 60 292 0.0 0.0 0.00 0.00 0.00 87 1018.0
20260509060325 60 264 1.0 2.0 0.00 0.00 0.00 87 1018.1
20260509055821 60 264 1.0 2.0 0.00 0.00 0.00 87 1018.2
20260509055316 60 280 0.0 0.0 0.00 0.00 0.00 87 1018.2
20260509054814 60 280 0.0 0.0 0.00 0.00 0.00 87 1018.4
20260509054310 60 255 2.0 2.0 0.00 0.00 0.00 87 1018.3
20260509053809 60 294 0.0 0.0 0.00 0.00 0.00 87 1018.4
20260509053305 60 272 0.0 0.0 0.00 0.00 0.00 87 1018.3
20260509052803 60 269 2.0 2.0 0.00 0.00 0.00 87 1018.2
20260509052301 60 283 0.0 2.0 0.00 0.00 0.00 87 1018.4
20260509051758 60 272 0.0 2.0 0.00 0.00 0.00 86 1018.4
20260509051256 60 302 0.0 0.0 0.00 0.00 0.00 86 1018.3
20260509050753 60 274 0.0 2.0 0.00 0.00 0.00 86 1018.2
20260509050249 60 292 0.0 0.0 0.00 0.00 0.00 86 1018.5
20260509045746 60 251 0.0 0.0 0.00 0.00 0.00 86 1018.5
20260509045243 60 289 0.0 0.0 0.00 0.00 0.00 86 1018.4
20260509044741 60 230 0.0 0.0 0.00 0.00 0.00 86 1018.5
20260509044238 60 278 0.0 0.0 0.00 0.00 0.00 86 1018.7
20260509043734 60 284 2.0 3.0 0.00 0.00 0.00 86 1018.6
20260509043230 60 278 0.0 0.0 0.00 0.00 0.00 85 1018.6
20260509042726 60 278 0.0 0.0 0.00 0.00 0.00 85 1019.0
20260509042223 60 278 0.0 0.0 0.00 0.00 0.00 86 1018.7
20260509041720 60 293 0.0 0.0 0.00 0.00 0.00 85 1018.7
20260509041217 60 293 0.0 0.0 0.00 0.00 0.00 85 1018.7
20260509040715 61 293 0.0 0.0 0.00 0.00 0.00 85 1018.8
20260509040212 61 293 0.0 0.0 0.00 0.00 0.00 85 1019.0
20260509035708 61 293 0.0 0.0 0.00 0.00 0.00 85 1018.7
20260509035205 60 293 0.0 0.0 0.00 0.00 0.00 84 1019.1
20260509034703 61 293 0.0 0.0 0.00 0.00 0.00 84 1019.1
20260509034200 61 293 0.0 0.0 0.00 0.00 0.00 84 1019.3
20260509033657 61 293 0.0 0.0 0.00 0.00 0.00 84 1019.4
20260509033154 61 293 0.0 0.0 0.00 0.00 0.00 84 1019.1
20260509032651 61 293 0.0 0.0 0.00 0.00 0.00 84 1019.1
20260509032148 61 294 0.0 0.0 0.00 0.00 0.00 83 1019.1
20260509031646 61 279 0.0 0.0 0.00 0.00 0.00 83 1019.1
20260509031143 61 278 0.0 0.0 0.00 0.00 0.00 83 1019.3
20260509030641 61 278 0.0 0.0 0.00 0.00 0.00 83 1019.0
20260509030138 61 286 0.0 0.0 0.00 0.00 0.00 83 1019.1
20260509025634 61 283 0.0 0.0 0.00 0.00 0.00 83 1019.3
20260509025130 61 283 0.0 0.0 0.00 0.00 0.00 82 1019.1
20260509024625 62 282 0.0 0.0 0.00 0.00 0.00 82 1019.3
20260509024122 62 282 0.0 0.0 0.00 0.00 0.00 82 1019.1
20260509023620 62 282 0.0 0.0 0.00 0.00 0.00 82 1019.1
20260509023116 62 282 0.0 0.0 0.00 0.00 0.00 82 1019.0
20260509022612 62 278 0.0 0.0 0.00 0.00 0.00 81 1019.3
20260509022111 62 278 0.0 0.0 0.00 0.00 0.00 80 1019.1
20260509021607 62 278 0.0 0.0 0.00 0.00 0.00 80 1019.6
20260509021104 62 278 0.0 0.0 0.00 0.00 0.00 80 1019.1
20260509020603 62 278 0.0 0.0 0.00 0.00 0.00 79 1019.4
20260509020059 62 273 0.0 0.0 0.00 0.00 0.00 79 1019.5
20260509015558 62 271 0.0 0.0 0.00 0.00 0.00 79 1019.4
20260509015055 63 278 0.0 0.0 0.00 0.00 0.00 79 1019.5
20260509014551 63 278 0.0 0.0 0.00 0.00 0.00 78 1019.4
20260509014048 63 277 0.0 2.0 0.00 0.00 0.00 79 1019.4
20260509013545 63 261 1.0 2.0 0.00 0.00 0.00 78 1019.5
20260509013040 63 270 0.0 2.0 0.00 0.00 0.00 78 1019.3
20260509012538 63 278 0.0 0.0 0.00 0.00 0.00 77 1019.5
20260509012034 63 277 0.0 0.0 0.00 0.00 0.00 77 1019.3
20260509011532 63 278 0.0 0.0 0.00 0.00 0.00 77 1019.6
20260509011029 64 273 0.0 0.0 0.00 0.00 0.00 76 1019.3
20260509010527 64 271 0.0 0.0 0.00 0.00 0.00 76 1019.5
20260509010023 64 255 2.0 2.0 0.00 0.00 0.00 76 1019.5
20260509005521 64 176 3.0 3.0 0.00 0.00 0.00 76 1019.6
20260509005021 64 277 0.0 0.0 0.00 0.00 0.00 75 1019.7
20260509004519 64 275 0.0 0.0 0.00 0.00 0.00 75 1019.8
20260509004015 64 272 0.0 0.0 0.00 0.00 0.00 75 1019.7
20260509003514 64 271 0.0 0.0 0.00 0.00 0.00 75 1019.7
20260509003010 64 259 2.0 3.0 0.00 0.00 0.00 75 1019.6
20260509002508 64 301 0.0 2.0 0.00 0.00 0.00 74 1019.7
20260509002005 64 229 2.0 2.0 0.00 0.00 0.00 74 1019.6
20260509001502 64 271 1.0 2.0 0.00 0.00 0.00 73 1019.7
20260509000958 64 275 0.0 0.0 0.00 0.00 0.00 73 1019.4
20260509000457 65 270 0.0 2.0 0.00 0.00 0.00 72 1019.6
20260508235952 65 283 0.0 0.0 0.00 0.00 0.00 71 1019.7
20260508235450 65 196 2.0 2.0 0.00 0.00 0.00 71 1019.6
20260508234947 65 203 1.0 2.0 0.00 0.00 0.00 70 1019.7
20260508234443 65 203 3.0 3.0 0.00 0.00 0.00 70 1019.7
20260508233941 65 251 1.0 2.0 0.00 0.00 0.00 69 1019.8
20260508233440 65 266 1.0 2.0 0.00 0.00 0.00 69 1019.5
20260508232937 66 242 3.0 3.0 0.00 0.00 0.00 69 1019.5
20260508232434 66 176 4.0 5.0 0.00 0.00 0.00 69 1019.7
20260508231931 66 269 0.0 0.0 0.00 0.00 0.00 69 1019.8
20260508231428 66 271 1.0 2.0 0.00 0.00 0.00 69 1019.7
20260508230925 66 256 2.0 2.0 0.00 0.00 0.00 68 1019.4
20260508230421 66 270 1.0 2.0 0.00 0.00 0.00 68 1019.3
20260508225919 66 278 0.0 0.0 0.00 0.00 0.00 68 1019.5
20260508225415 66 272 0.0 0.0 0.00 0.00 0.00 67 1018.9
20260508224913 67 120 3.0 5.0 0.00 0.00 0.00 66 1019.1
20260508224411 67 213 3.0 3.0 0.00 0.00 0.00 65 1018.9
20260508223908 67 270 1.0 2.0 0.00 0.00 0.00 66 1019.3
20260508223406 67 244 2.0 2.0 0.00 0.00 0.00 67 1018.7
20260508222903 67 266 2.0 3.0 0.00 0.00 0.00 66 1018.8
20260508222359 67 100 3.0 3.0 0.00 0.00 0.00 66 1018.9
20260508221856 67 271 0.0 0.0 0.00 0.00 0.00 66 1019.4
20260508221352 67 266 1.0 2.0 0.00 0.00 0.00 66 1019.5
20260508220848 67 266 1.0 2.0 0.00 0.00 0.00 66 1019.4
20260508220345 67 258 1.0 2.0 0.00 0.00 0.00 66 1019.1
20260508215841 68 273 3.0 3.0 0.00 0.00 0.00 66 1019.4
20260508215338 68 264 2.0 2.0 0.00 0.00 0.00 65 1019.3
20260508214835 68 224 2.0 3.0 0.00 0.00 0.00 64 1019.5
20260508214332 68 145 5.0 5.0 0.00 0.00 0.00 64 1018.9
20260508213828 68 275 0.0 0.0 0.00 0.00 0.00 64 1019.3
20260508213325 68 251 3.0 3.0 0.00 0.00 0.00 64 1019.3
20260508212822 68 241 2.0 3.0 0.00 0.00 0.00 63 1019.1
20260508212318 68 279 3.0 3.0 0.00 0.00 0.00 63 1019.1
20260508211814 68 266 1.0 3.0 0.00 0.00 0.00 62 1019.1
20260508211309 69 266 3.0 5.0 0.00 0.00 0.00 62 1019.5
20260508210808 69 255 1.0 2.0 0.00 0.00 0.00 62 1019.5
20260508210304 69 274 0.0 0.0 0.00 0.00 0.00 61 1019.7
20260508205801 69 249 2.0 2.0 0.00 0.00 0.00 60 1019.6
20260508205257 69 266 2.0 2.0 0.00 0.00 0.00 60 1019.6
20260508204754 69 247 2.0 3.0 0.00 0.00 0.00 60 1019.5
20260508204250 69 201 2.0 2.0 0.00 0.00 0.00 58 1019.4
20260508203746 69 285 0.0 0.0 0.00 0.00 0.00 59 1019.8
20260508203243 69 282 0.0 0.0 0.00 0.00 0.00 59 1019.7
20260508202738 69 255 3.0 3.0 0.00 0.00 0.00 57 1019.5
20260508202236 69 274 0.0 0.0 0.00 0.00 0.00 58 1019.5
20260508201733 69 214 1.0 2.0 0.00 0.00 0.00 57 1019.6
20260508201229 70 162 3.0 3.0 0.00 0.00 0.00 53 1019.4
20260508200726 70 285 0.0 0.0 0.00 0.00 0.00 55 1019.3
20260508200222 70 278 2.0 3.0 0.00 0.00 0.00 52 1019.5
20260508195719 70 276 0.0 2.0 0.00 0.00 0.00 54 1019.5
20260508195215 70 194 3.0 3.0 0.00 0.00 0.00 54 1019.6
20260508194712 70 154 3.0 5.0 0.00 0.00 0.00 54 1019.6
20260508194209 70 259 0.0 0.0 0.00 0.00 0.00 54 1019.6
20260508193706 70 276 0.0 0.0 0.00 0.00 0.00 52 1019.7
20260508193203 70 251 1.0 2.0 0.00 0.00 0.00 51 1019.9
20260508192659 70 278 0.0 0.0 0.00 0.00 0.00 53 1020.1
20260508192156 70 279 0.0 0.0 0.00 0.00 0.00 51 1019.9
20260508191653 70 272 0.0 2.0 0.00 0.00 0.00 52 1020.2
20260508191149 70 235 3.0 3.0 0.00 0.00 0.00 50 1020.0
20260508190647 71 283 0.0 0.0 0.00 0.00 0.00 51 1020.0
20260508190144 70 174 1.0 2.0 0.00 0.00 0.00 50 1020.2
20260508185640 70 286 0.0 0.0 0.00 0.00 0.00 54 1020.3
20260508185138 70 285 0.0 0.0 0.00 0.00 0.00 53 1020.3
20260508184635 70 234 2.0 3.0 0.00 0.00 0.00 51 1020.5
20260508184132 71 263 1.0 2.0 0.00 0.00 0.00 49 1020.1
20260508183629 71 249 1.0 2.0 0.00 0.00 0.00 50 1020.3
20260508183125 70 277 0.0 0.0 0.00 0.00 0.00 53 1020.6
20260508182621 70 286 0.0 0.0 0.00 0.00 0.00 56 1020.8
20260508182118 71 318 2.0 3.0 0.00 0.00 0.00 53 1020.6
20260508181613 71 251 2.0 2.0 0.00 0.00 0.00 50 1020.8
20260508181111 71 258 1.0 2.0 0.00 0.00 0.00 51 1020.7
20260508180608 71 289 1.0 3.0 0.00 0.00 0.00 50 1020.7
20260508180104 70 221 1.0 2.0 0.00 0.00 0.00 53 1020.9
20260508175601 70 278 2.0 3.0 0.00 0.00 0.00 52 1021.0
20260508175058 70 256 3.0 3.0 0.00 0.00 0.00 54 1021.3
20260508174555 70 220 2.0 2.0 0.00 0.00 0.00 50 1021.2
20260508174052 70 288 1.0 2.0 0.00 0.00 0.00 53 1021.2
20260508173549 70 296 0.0 0.0 0.00 0.00 0.00 55 1021.0
20260508173045 70 173 6.0 7.0 0.00 0.00 0.00 50 1021.1
20260508172542 71 249 1.0 2.0 0.00 0.00 0.00 47 1021.6
20260508172039 70 28 1.0 2.0 0.00 0.00 0.00 54 1021.4
20260508171535 69 234 0.0 0.0 0.00 0.00 0.00 54 1021.6
20260508171032 70 106 3.0 3.0 0.00 0.00 0.00 49 1021.6
20260508170529 69 166 2.0 3.0 0.00 0.00 0.00 52 1021.8
20260508170026 69 260 2.0 2.0 0.00 0.00 0.00 54 1021.7
20260508165524 69 279 0.0 2.0 0.00 0.00 0.00 57 1021.8
20260508165020 68 201 0.0 2.0 0.00 0.00 0.00 56 1021.8
20260508164517 67 235 1.0 2.0 0.00 0.00 0.00 57 1021.7
20260508164014 67 199 0.0 0.0 0.00 0.00 0.00 58 1022.0
20260508163511 67 262 1.0 2.0 0.00 0.00 0.00 60 1021.8
20260508163007 67 271 1.0 2.0 0.00 0.00 0.00 60 1022.2
20260508162504 67 295 1.0 2.0 0.00 0.00 0.00 65 1022.4
20260508162001 67 286 0.0 0.0 0.00 0.00 0.00 65 1022.4
20260508161458 67 294 0.0 2.0 0.00 0.00 0.00 65 1022.4
20260508160955 67 220 1.0 2.0 0.00 0.00 0.00 62 1022.4
20260508160454 67 96 1.0 2.0 0.00 0.00 0.00 62 1022.1
20260508155950 67 290 0.0 0.0 0.00 0.00 0.00 63 1022.5
20260508155448 67 161 2.0 3.0 0.00 0.00 0.00 61 1022.5
20260508154944 66 216 1.0 2.0 0.00 0.00 0.00 61 1022.5
20260508154442 66 168 3.0 3.0 0.00 0.00 0.00 61 1022.7
20260508153938 66 262 0.0 0.0 0.00 0.00 0.00 63 1022.7
20260508153435 66 292 0.0 2.0 0.00 0.00 0.00 64 1023.1
20260508152931 66 283 0.0 0.0 0.00 0.00 0.00 60 1022.9
20260508152428 66 291 0.0 0.0 0.00 0.00 0.00 64 1023.1
20260508151925 66 293 0.0 2.0 0.00 0.00 0.00 62 1022.7
20260508151422 66 175 5.0 7.0 0.00 0.00 0.00 60 1023.1
20260508150918 66 263 0.0 0.0 0.00 0.00 0.00 62 1022.9
20260508150415 65 174 4.0 5.0 0.00 0.00 0.00 63 1023.1
20260508145911 65 251 0.0 0.0 0.00 0.00 0.00 65 1022.9
20260508145407 65 275 0.0 0.0 0.00 0.00 0.00 66 1022.7
20260508144904 65 296 1.0 2.0 0.00 0.00 0.00 64 1022.7
20260508144402 64 294 0.0 2.0 0.00 0.00 0.00 62 1022.7
20260508143859 64 156 1.0 3.0 0.00 0.00 0.00 65 1022.9
20260508143356 64 277 0.0 0.0 0.00 0.00 0.00 64 1023.3
20260508142853 63 296 0.0 0.0 0.00 0.00 0.00 63 1023.0
20260508142350 63 285 0.0 0.0 0.00 0.00 0.00 64 1023.2
20260508141846 63 288 0.0 0.0 0.00 0.00 0.00 69 1023.1
20260508141343 62 275 0.0 2.0 0.00 0.00 0.00 65 1023.1
20260508140841 62 277 0.0 0.0 0.00 0.00 0.00 69 1022.9
20260508140338 61 288 0.0 0.0 0.00 0.00 0.00 75 1023.1
20260508135833 61 265 0.0 0.0 0.00 0.00 0.00 73 1023.0
20260508135330 60 298 0.0 0.0 0.00 0.00 0.00 77 1023.0
20260508134826 60 297 0.0 0.0 0.00 0.00 0.00 77 1023.0
20260508134323 60 298 0.0 0.0 0.00 0.00 0.00 79 1022.9
20260508133819 60 298 0.0 0.0 0.00 0.00 0.00 79 1023.1
20260508133317 59 298 0.0 0.0 0.00 0.00 0.00 78 1023.0
20260508132814 59 298 0.0 0.0 0.00 0.00 0.00 79 1023.0
20260508132312 59 288 0.0 0.0 0.00 0.00 0.00 79 1022.9
20260508131808 59 288 0.0 0.0 0.00 0.00 0.00 80 1023.1
20260508131304 58 288 0.0 0.0 0.00 0.00 0.00 81 1022.9
20260508130801 58 288 0.0 0.0 0.00 0.00 0.00 83 1022.9
20260508130258 57 288 0.0 0.0 0.00 0.00 0.00 83 1022.9
20260508125754 57 288 0.0 0.0 0.00 0.00 0.00 85 1023.1
20260508125250 57 288 0.0 0.0 0.00 0.00 0.00 87 1022.9
20260508124749 57 288 0.0 0.0 0.00 0.00 0.00 87 1022.9
20260508124246 57 288 0.0 0.0 0.00 0.00 0.00 87 1022.6
20260508123744 56 288 0.0 0.0 0.00 0.00 0.00 87 1022.7
20260508123241 56 288 0.0 0.0 0.00 0.00 0.00 88 1023.0
20260508122737 55 288 0.0 0.0 0.00 0.00 0.00 88 1022.9
20260508122234 55 288 0.0 0.0 0.00 0.00 0.00 89 1023.1
20260508121731 55 288 0.0 0.0 0.00 0.00 0.00 89 1022.7
20260508121230 54 288 0.0 0.0 0.00 0.00 0.00 89 1022.9
20260508120727 54 289 0.0 0.0 0.00 0.00 0.00 89 1022.5
20260508120225 54 289 0.0 0.0 0.00 0.00 0.00 89 1022.5
20260508115722 53 288 0.0 0.0 0.00 0.00 0.00 89 1022.7
20260508115220 53 287 0.0 0.0 0.00 0.00 0.00 89 1022.6
20260508114716 53 286 0.0 0.0 0.00 0.00 0.00 89 1022.6
20260508114213 53 286 0.0 0.0 0.00 0.00 0.00 89 1022.4
20260508113709 52 285 0.0 0.0 0.00 0.00 0.00 89 1022.1
20260508113208 52 285 0.0 0.0 0.00 0.00 0.00 89 1022.1
20260508112703 52 285 0.0 0.0 0.00 0.00 0.00 89 1021.9
20260508112201 52 285 0.0 0.0 0.00 0.00 0.00 89 1021.8
20260508111657 52 285 0.0 0.0 0.00 0.00 0.00 89 1021.7
20260508111155 53 285 0.0 0.0 0.00 0.00 0.00 89 1021.7
20260508110652 53 285 0.0 0.0 0.00 0.00 0.00 89 1021.4
20260508110149 53 285 0.0 0.0 0.00 0.00 0.00 88 1021.3
20260508105644 53 295 0.0 0.0 0.00 0.00 0.00 88 1021.0
20260508105141 53 295 0.0 0.0 0.00 0.00 0.00 88 1021.0
20260508104639 54 299 0.0 0.0 0.00 0.00 0.00 88 1021.2
20260508104135 54 299 0.0 0.0 0.00 0.00 0.00 88 1020.9
20260508103632 54 299 0.0 0.0 0.00 0.00 0.00 88 1021.0
20260508103129 53 295 0.0 0.0 0.00 0.00 0.00 88 1020.8
20260508102626 53 295 0.0 0.0 0.00 0.00 0.00 88 1020.6
20260508102125 54 295 0.0 0.0 0.00 0.00 0.00 88 1020.4
20260508101621 54 295 0.0 0.0 0.00 0.00 0.00 88 1020.3
20260508101119 54 302 0.0 0.0 0.00 0.00 0.00 88 1020.3
20260508100617 54 302 0.0 0.0 0.00 0.00 0.00 88 1020.3
20260508100114 54 302 0.0 0.0 0.00 0.00 0.00 88 1020.6
20260508095610 54 302 0.0 0.0 0.00 0.00 0.00 88 1020.4
20260508095108 54 302 0.0 0.0 0.00 0.00 0.00 88 1020.4
20260508094605 54 302 0.0 0.0 0.00 0.00 0.00 88 1020.4
20260508094101 54 302 0.0 0.0 0.00 0.00 0.00 88 1020.0
20260508093559 54 302 0.0 0.0 0.00 0.00 0.00 88 1020.1
20260508093056 54 303 0.0 0.0 0.00 0.00 0.00 88 1020.2
20260508092553 54 303 0.0 0.0 0.00 0.00 0.00 88 1020.2
20260508092052 55 303 0.0 0.0 0.00 0.00 0.00 88 1020.1
20260508091549 55 303 0.0 0.0 0.00 0.00 0.00 88 1020.2
20260508091046 55 303 0.0 0.0 0.00 0.00 0.00 88 1019.9
20260508090544 55 303 0.0 0.0 0.00 0.00 0.00 88 1020.1
20260508090040 55 303 0.0 0.0 0.00 0.00 0.00 88 1020.1
20260508085536 55 303 0.0 0.0 0.00 0.00 0.00 88 1020.0
20260508085034 55 303 0.0 0.0 0.00 0.00 0.00 88 1019.9
20260508084531 55 303 0.0 0.0 0.00 0.00 0.00 88 1019.9
20260508084028 55 303 0.0 0.0 0.00 0.00 0.00 88 1019.9
20260508083525 55 303 0.0 0.0 0.00 0.00 0.00 88 1019.9
20260508083021 55 303 0.0 0.0 0.00 0.00 0.00 88 1019.8
20260508082517 55 302 0.0 0.0 0.00 0.00 0.00 88 1019.8
20260508082015 55 303 0.0 0.0 0.00 0.00 0.00 88 1020.0
20260508081512 55 303 0.0 0.0 0.00 0.00 0.00 88 1020.0
20260508081008 55 303 0.0 0.0 0.00 0.00 0.00 89 1019.7
20260508080506 55 303 0.0 0.0 0.00 0.00 0.00 89 1019.7
20260508080003 55 303 0.0 0.0 0.00 0.00 0.00 89 1019.7
20260508075500 55 303 0.0 0.0 0.00 0.00 0.00 89 1019.7
20260508074958 56 303 0.0 0.0 0.00 0.00 0.00 89 1019.8
20260508074455 56 303 0.0 0.0 0.00 0.00 0.00 89 1019.7
20260508073951 56 303 0.0 0.0 0.00 0.00 0.00 89 1019.7
20260508073449 56 303 0.0 0.0 0.00 0.00 0.00 89 1020.0
20260508072946 56 303 0.0 0.0 0.00 0.00 0.00 89 1019.8